Location: Ajisawe
(8.4333°N, 4.3833°E)
Time: 22:07:38
(UTC+00:00)

Vanguard 2 Rocket - Pass Details

Date: 22 April 2021
Orbit: 554 x 3326 km, 32.9° (Epoch: 16 May)

Event Time Altitude Azimuth Distance (km) Brightness Sun altitude
Rises 12:28:35 0° 271° (W) 5,779 11.2 77.6°
Reaches altitude 10° 12:32:22 10° 278° (W) 5,115 11.1 76.8°
Maximum altitude 12:47:12 40° 343° (NNW) 4,090 11.1 73.2°
Drops below altitude 10° 13:05:38 10° 47° (NE) 6,210 11.1 68.8°
Sets 13:10:57 0° 55° (NE) 7,073 11.3 67.5°
